<?xml version="1.0" encoding="UTF-8"?>
<gpx
version="1.1"
creator="Kashmir3D 9.350 - http://www.kashmir3d.com"
xmlns:xsi="http://www.w3.org/2001/XMLSchema-instance"
xmlns="http://www.topografix.com/GPX/1/1"
xmlns:kashmir3d="http://www.kashmir3d.com/namespace/kashmir3d"
xsi:schemaLocation="http://www.topografix.com/GPX/1/1 http://www.topografix.com/GPX/1/1/gpx.xsd
	http://www.kashmir3d.com/namespace/kashmir3d http://www.kashmir3d.com/namespace/kashmir3d.xsd">
<trk>
 <name>OTAKADAIYAMA.KML(雄鷹台山)</name>
 <number>1</number>
 <extensions>
 <kashmir3d:line_color>0000ff</kashmir3d:line_color>
 <kashmir3d:line_size>3</kashmir3d:line_size>
 <kashmir3d:line_style>1</kashmir3d:line_style>
 <kashmir3d:icon>901001</kashmir3d:icon>
 </extensions>
<trkseg>
<trkpt lat="34.756974" lon="134.393406">
 <ele>2.3</ele>
 <time>2020-03-24T14:16:14Z</time>
</trkpt>
<trkpt lat="34.757197" lon="134.393406">
 <ele>2.4</ele>
 <time>2020-03-24T14:16:14Z</time>
</trkpt>
<trkpt lat="34.757240" lon="134.393491">
 <ele>2.4</ele>
 <time>2020-03-24T14:16:14Z</time>
</trkpt>
<trkpt lat="34.757343" lon="134.393470">
 <ele>2.4</ele>
 <time>2020-03-24T14:16:14Z</time>
</trkpt>
<trkpt lat="34.758330" lon="134.393470">
 <ele>2.1</ele>
 <time>2020-03-24T14:16:14Z</time>
</trkpt>
<trkpt lat="34.758373" lon="134.393481">
 <ele>2.2</ele>
 <time>2020-03-24T14:16:14Z</time>
</trkpt>
<trkpt lat="34.758373" lon="134.394028">
 <ele>2.4</ele>
 <time>2020-03-24T14:16:14Z</time>
</trkpt>
<trkpt lat="34.758313" lon="134.394328">
 <ele>2.4</ele>
 <time>2020-03-24T14:16:15Z</time>
</trkpt>
<trkpt lat="34.758176" lon="134.394768">
 <ele>2.6</ele>
 <time>2020-03-24T14:16:15Z</time>
</trkpt>
<trkpt lat="34.757541" lon="134.395616">
 <ele>2.8</ele>
 <time>2020-03-24T14:16:15Z</time>
</trkpt>
<trkpt lat="34.757154" lon="134.396088">
 <ele>3.1</ele>
 <time>2020-03-24T14:16:15Z</time>
</trkpt>
<trkpt lat="34.756991" lon="134.396463">
 <ele>3.1</ele>
 <time>2020-03-24T14:16:15Z</time>
</trkpt>
<trkpt lat="34.756940" lon="134.396667">
 <ele>3.2</ele>
 <time>2020-03-24T14:16:15Z</time>
</trkpt>
<trkpt lat="34.756931" lon="134.396807">
 <ele>3.4</ele>
 <time>2020-03-24T14:16:15Z</time>
</trkpt>
<trkpt lat="34.757137" lon="134.397032">
 <ele>3.7</ele>
 <time>2020-03-24T14:16:15Z</time>
</trkpt>
<trkpt lat="34.757326" lon="134.396860">
 <ele>14.3</ele>
 <time>2020-03-24T14:16:15Z</time>
</trkpt>
<trkpt lat="34.757421" lon="134.396860">
 <ele>20.3</ele>
 <time>2020-03-24T14:16:16Z</time>
</trkpt>
<trkpt lat="34.757515" lon="134.396968">
 <ele>20.8</ele>
 <time>2020-03-24T14:16:16Z</time>
</trkpt>
<trkpt lat="34.757618" lon="134.397043">
 <ele>23.4</ele>
 <time>2020-03-24T14:16:16Z</time>
</trkpt>
<trkpt lat="34.757695" lon="134.397129">
 <ele>28.2</ele>
 <time>2020-03-24T14:16:16Z</time>
</trkpt>
<trkpt lat="34.757764" lon="134.397171">
 <ele>31.1</ele>
 <time>2020-03-24T14:16:16Z</time>
</trkpt>
<trkpt lat="34.757824" lon="134.397204">
 <ele>32.7</ele>
 <time>2020-03-24T14:16:16Z</time>
</trkpt>
<trkpt lat="34.757893" lon="134.397204">
 <ele>35.4</ele>
 <time>2020-03-24T14:16:16Z</time>
</trkpt>
<trkpt lat="34.757970" lon="134.397193">
 <ele>38.3</ele>
 <time>2020-03-24T14:16:16Z</time>
</trkpt>
<trkpt lat="34.758047" lon="134.397236">
 <ele>42.9</ele>
 <time>2020-03-24T14:16:16Z</time>
</trkpt>
<trkpt lat="34.758124" lon="134.397300">
 <ele>45</ele>
 <time>2020-03-24T14:16:16Z</time>
</trkpt>
<trkpt lat="34.758227" lon="134.397354">
 <ele>48.9</ele>
 <time>2020-03-24T14:16:17Z</time>
</trkpt>
<trkpt lat="34.758365" lon="134.397397">
 <ele>56.7</ele>
 <time>2020-03-24T14:16:17Z</time>
</trkpt>
<trkpt lat="34.758502" lon="134.397461">
 <ele>62.1</ele>
 <time>2020-03-24T14:16:17Z</time>
</trkpt>
<trkpt lat="34.758571" lon="134.397525">
 <ele>63.2</ele>
 <time>2020-03-24T14:16:17Z</time>
</trkpt>
<trkpt lat="34.758682" lon="134.397579">
 <ele>69.9</ele>
 <time>2020-03-24T14:16:17Z</time>
</trkpt>
<trkpt lat="34.758802" lon="134.397536">
 <ele>75</ele>
 <time>2020-03-24T14:16:17Z</time>
</trkpt>
<trkpt lat="34.758863" lon="134.397525">
 <ele>76.5</ele>
 <time>2020-03-24T14:16:17Z</time>
</trkpt>
<trkpt lat="34.758811" lon="134.397365">
 <ele>83.3</ele>
 <time>2020-03-24T14:16:17Z</time>
</trkpt>
<trkpt lat="34.758888" lon="134.397343">
 <ele>85.1</ele>
 <time>2020-03-24T14:16:17Z</time>
</trkpt>
<trkpt lat="34.758974" lon="134.397343">
 <ele>87</ele>
 <time>2020-03-24T14:16:17Z</time>
</trkpt>
<trkpt lat="34.759094" lon="134.397322">
 <ele>87.1</ele>
 <time>2020-03-24T14:16:18Z</time>
</trkpt>
<trkpt lat="34.759163" lon="134.397332">
 <ele>87</ele>
 <time>2020-03-24T14:16:18Z</time>
</trkpt>
<trkpt lat="34.759214" lon="134.397343">
 <ele>87.4</ele>
 <time>2020-03-24T14:16:18Z</time>
</trkpt>
<trkpt lat="34.759274" lon="134.397343">
 <ele>87.5</ele>
 <time>2020-03-24T14:16:18Z</time>
</trkpt>
<trkpt lat="34.759377" lon="134.397365">
 <ele>88.1</ele>
 <time>2020-03-24T14:16:18Z</time>
</trkpt>
<trkpt lat="34.759438" lon="134.397397">
 <ele>87.9</ele>
 <time>2020-03-24T14:16:18Z</time>
</trkpt>
<trkpt lat="34.759480" lon="134.397429">
 <ele>87.4</ele>
 <time>2020-03-24T14:16:18Z</time>
</trkpt>
<trkpt lat="34.759549" lon="134.397429">
 <ele>88.2</ele>
 <time>2020-03-24T14:16:18Z</time>
</trkpt>
<trkpt lat="34.759686" lon="134.397461">
 <ele>88.2</ele>
 <time>2020-03-24T14:16:18Z</time>
</trkpt>
<trkpt lat="34.759841" lon="134.397525">
 <ele>88.4</ele>
 <time>2020-03-24T14:16:19Z</time>
</trkpt>
<trkpt lat="34.759901" lon="134.397568">
 <ele>89.4</ele>
 <time>2020-03-24T14:16:19Z</time>
</trkpt>
<trkpt lat="34.759978" lon="134.397644">
 <ele>90.1</ele>
 <time>2020-03-24T14:16:19Z</time>
</trkpt>
<trkpt lat="34.760081" lon="134.397654">
 <ele>92.7</ele>
 <time>2020-03-24T14:16:19Z</time>
</trkpt>
<trkpt lat="34.760184" lon="134.397708">
 <ele>96</ele>
 <time>2020-03-24T14:16:19Z</time>
</trkpt>
<trkpt lat="34.760262" lon="134.397719">
 <ele>97.7</ele>
 <time>2020-03-24T14:16:19Z</time>
</trkpt>
<trkpt lat="34.760347" lon="134.397697">
 <ele>99.8</ele>
 <time>2020-03-24T14:16:19Z</time>
</trkpt>
<trkpt lat="34.760399" lon="134.397751">
 <ele>101.3</ele>
 <time>2020-03-24T14:16:19Z</time>
</trkpt>
<trkpt lat="34.760545" lon="134.397772">
 <ele>102.1</ele>
 <time>2020-03-24T14:16:19Z</time>
</trkpt>
<trkpt lat="34.760596" lon="134.397762">
 <ele>102.4</ele>
 <time>2020-03-24T14:16:19Z</time>
</trkpt>
<trkpt lat="34.760665" lon="134.397762">
 <ele>101.9</ele>
 <time>2020-03-24T14:16:20Z</time>
</trkpt>
<trkpt lat="34.760734" lon="134.397740">
 <ele>101.2</ele>
 <time>2020-03-24T14:16:20Z</time>
</trkpt>
<trkpt lat="34.760819" lon="134.397794">
 <ele>100.7</ele>
 <time>2020-03-24T14:16:20Z</time>
</trkpt>
<trkpt lat="34.760957" lon="134.397815">
 <ele>100.5</ele>
 <time>2020-03-24T14:16:20Z</time>
</trkpt>
<trkpt lat="34.761051" lon="134.397869">
 <ele>100.9</ele>
 <time>2020-03-24T14:16:20Z</time>
</trkpt>
<trkpt lat="34.761111" lon="134.397880">
 <ele>101.3</ele>
 <time>2020-03-24T14:16:20Z</time>
</trkpt>
<trkpt lat="34.761197" lon="134.397869">
 <ele>102.8</ele>
 <time>2020-03-24T14:16:20Z</time>
</trkpt>
<trkpt lat="34.761257" lon="134.397912">
 <ele>103.7</ele>
 <time>2020-03-24T14:16:20Z</time>
</trkpt>
<trkpt lat="34.761317" lon="134.397890">
 <ele>104.2</ele>
 <time>2020-03-24T14:16:20Z</time>
</trkpt>
<trkpt lat="34.761429" lon="134.397912">
 <ele>106.4</ele>
 <time>2020-03-24T14:16:20Z</time>
</trkpt>
<trkpt lat="34.761506" lon="134.397976">
 <ele>107.7</ele>
 <time>2020-03-24T14:16:21Z</time>
</trkpt>
<trkpt lat="34.761566" lon="134.398008">
 <ele>108.1</ele>
 <time>2020-03-24T14:16:21Z</time>
</trkpt>
<trkpt lat="34.761643" lon="134.398030">
 <ele>109.8</ele>
 <time>2020-03-24T14:16:21Z</time>
</trkpt>
<trkpt lat="34.761746" lon="134.398073">
 <ele>111.2</ele>
 <time>2020-03-24T14:16:21Z</time>
</trkpt>
<trkpt lat="34.761815" lon="134.398094">
 <ele>112.9</ele>
 <time>2020-03-24T14:16:21Z</time>
</trkpt>
<trkpt lat="34.761875" lon="134.398116">
 <ele>114.5</ele>
 <time>2020-03-24T14:16:21Z</time>
</trkpt>
<trkpt lat="34.761944" lon="134.398116">
 <ele>115.8</ele>
 <time>2020-03-24T14:16:21Z</time>
</trkpt>
<trkpt lat="34.762030" lon="134.398105">
 <ele>117.5</ele>
 <time>2020-03-24T14:16:21Z</time>
</trkpt>
<trkpt lat="34.762115" lon="134.398083">
 <ele>118.8</ele>
 <time>2020-03-24T14:16:21Z</time>
</trkpt>
<trkpt lat="34.762176" lon="134.398158">
 <ele>121.1</ele>
 <time>2020-03-24T14:16:21Z</time>
</trkpt>
<trkpt lat="34.762296" lon="134.398191">
 <ele>124.5</ele>
 <time>2020-03-24T14:16:22Z</time>
</trkpt>
<trkpt lat="34.762407" lon="134.398158">
 <ele>128.3</ele>
 <time>2020-03-24T14:16:22Z</time>
</trkpt>
<trkpt lat="34.762493" lon="134.398158">
 <ele>132.3</ele>
 <time>2020-03-24T14:16:22Z</time>
</trkpt>
<trkpt lat="34.762570" lon="134.398126">
 <ele>134.2</ele>
 <time>2020-03-24T14:16:22Z</time>
</trkpt>
<trkpt lat="34.762656" lon="134.398116">
 <ele>136.9</ele>
 <time>2020-03-24T14:16:22Z</time>
</trkpt>
<trkpt lat="34.762733" lon="134.398180">
 <ele>140.3</ele>
 <time>2020-03-24T14:16:22Z</time>
</trkpt>
<trkpt lat="34.762794" lon="134.398223">
 <ele>143.2</ele>
 <time>2020-03-24T14:16:22Z</time>
</trkpt>
<trkpt lat="34.762888" lon="134.398223">
 <ele>147</ele>
 <time>2020-03-24T14:16:22Z</time>
</trkpt>
<trkpt lat="34.762982" lon="134.398266">
 <ele>151</ele>
 <time>2020-03-24T14:16:22Z</time>
</trkpt>
<trkpt lat="34.763034" lon="134.398287">
 <ele>152.2</ele>
 <time>2020-03-24T14:16:23Z</time>
</trkpt>
<trkpt lat="34.763085" lon="134.398341">
 <ele>153.4</ele>
 <time>2020-03-24T14:16:23Z</time>
</trkpt>
<trkpt lat="34.763137" lon="134.398341">
 <ele>155.1</ele>
 <time>2020-03-24T14:16:23Z</time>
</trkpt>
<trkpt lat="34.763206" lon="134.398416">
 <ele>156.1</ele>
 <time>2020-03-24T14:16:23Z</time>
</trkpt>
<trkpt lat="34.763300" lon="134.398437">
 <ele>157.2</ele>
 <time>2020-03-24T14:16:23Z</time>
</trkpt>
<trkpt lat="34.763403" lon="134.398470">
 <ele>156.8</ele>
 <time>2020-03-24T14:16:23Z</time>
</trkpt>
<trkpt lat="34.763497" lon="134.398513">
 <ele>155.7</ele>
 <time>2020-03-24T14:16:23Z</time>
</trkpt>
<trkpt lat="34.763781" lon="134.398577">
 <ele>156.2</ele>
 <time>2020-03-24T14:16:23Z</time>
</trkpt>
<trkpt lat="34.763901" lon="134.398598">
 <ele>156.7</ele>
 <time>2020-03-24T14:16:23Z</time>
</trkpt>
<trkpt lat="34.764004" lon="134.398673">
 <ele>157.2</ele>
 <time>2020-03-24T14:16:23Z</time>
</trkpt>
<trkpt lat="34.764090" lon="134.398759">
 <ele>158.4</ele>
 <time>2020-03-24T14:16:24Z</time>
</trkpt>
<trkpt lat="34.764167" lon="134.398824">
 <ele>159.5</ele>
 <time>2020-03-24T14:16:24Z</time>
</trkpt>
<trkpt lat="34.764236" lon="134.398899">
 <ele>161.6</ele>
 <time>2020-03-24T14:16:24Z</time>
</trkpt>
<trkpt lat="34.764261" lon="134.398995">
 <ele>164.1</ele>
 <time>2020-03-24T14:16:24Z</time>
</trkpt>
<trkpt lat="34.764313" lon="134.399124">
 <ele>168.1</ele>
 <time>2020-03-24T14:16:24Z</time>
</trkpt>
<trkpt lat="34.764407" lon="134.399285">
 <ele>174.5</ele>
 <time>2020-03-24T14:16:24Z</time>
</trkpt>
<trkpt lat="34.764476" lon="134.399392">
 <ele>177.3</ele>
 <time>2020-03-24T14:16:24Z</time>
</trkpt>
<trkpt lat="34.764536" lon="134.399510">
 <ele>180.8</ele>
 <time>2020-03-24T14:16:24Z</time>
</trkpt>
<trkpt lat="34.764587" lon="134.399585">
 <ele>183.2</ele>
 <time>2020-03-24T14:16:24Z</time>
</trkpt>
<trkpt lat="34.764613" lon="134.399671">
 <ele>185.6</ele>
 <time>2020-03-24T14:16:25Z</time>
</trkpt>
<trkpt lat="34.764656" lon="134.399768">
 <ele>187.3</ele>
 <time>2020-03-24T14:16:25Z</time>
</trkpt>
<trkpt lat="34.764725" lon="134.399832">
 <ele>189</ele>
 <time>2020-03-24T14:16:25Z</time>
</trkpt>
<trkpt lat="34.764750" lon="134.399886">
 <ele>190.1</ele>
 <time>2020-03-24T14:16:25Z</time>
</trkpt>
<trkpt lat="34.764811" lon="134.400036">
 <ele>192.9</ele>
 <time>2020-03-24T14:16:25Z</time>
</trkpt>
<trkpt lat="34.764905" lon="134.400154">
 <ele>197.9</ele>
 <time>2020-03-24T14:16:25Z</time>
</trkpt>
<trkpt lat="34.764991" lon="134.400229">
 <ele>202.6</ele>
 <time>2020-03-24T14:16:25Z</time>
</trkpt>
<trkpt lat="34.765051" lon="134.400326">
 <ele>205.7</ele>
 <time>2020-03-24T14:16:25Z</time>
</trkpt>
<trkpt lat="34.765128" lon="134.400422">
 <ele>209.7</ele>
 <time>2020-03-24T14:16:25Z</time>
</trkpt>
<trkpt lat="34.765205" lon="134.400508">
 <ele>214.4</ele>
 <time>2020-03-24T14:16:25Z</time>
</trkpt>
<trkpt lat="34.765300" lon="134.400615">
 <ele>219</ele>
 <time>2020-03-24T14:16:26Z</time>
</trkpt>
<trkpt lat="34.765377" lon="134.400648">
 <ele>222.1</ele>
 <time>2020-03-24T14:16:26Z</time>
</trkpt>
<trkpt lat="34.765489" lon="134.400733">
 <ele>227.8</ele>
 <time>2020-03-24T14:16:26Z</time>
</trkpt>
<trkpt lat="34.765592" lon="134.400809">
 <ele>231.8</ele>
 <time>2020-03-24T14:16:26Z</time>
</trkpt>
<trkpt lat="34.765686" lon="134.400851">
 <ele>234.7</ele>
 <time>2020-03-24T14:16:26Z</time>
</trkpt>
<trkpt lat="34.765806" lon="134.400894">
 <ele>239</ele>
 <time>2020-03-24T14:16:26Z</time>
</trkpt>
<trkpt lat="34.765926" lon="134.400905">
 <ele>242.1</ele>
 <time>2020-03-24T14:16:26Z</time>
</trkpt>
<trkpt lat="34.766021" lon="134.400884">
 <ele>245.3</ele>
 <time>2020-03-24T14:16:26Z</time>
</trkpt>
<trkpt lat="34.766098" lon="134.400894">
 <ele>247</ele>
 <time>2020-03-24T14:16:26Z</time>
</trkpt>
<trkpt lat="34.766175" lon="134.400916">
 <ele>247.9</ele>
 <time>2020-03-24T14:16:26Z</time>
</trkpt>
<trkpt lat="34.766278" lon="134.400959">
 <ele>249.6</ele>
 <time>2020-03-24T14:16:27Z</time>
</trkpt>
<trkpt lat="34.766347" lon="134.400969">
 <ele>251.1</ele>
 <time>2020-03-24T14:16:27Z</time>
</trkpt>
<trkpt lat="34.766459" lon="134.401034">
 <ele>252.2</ele>
 <time>2020-03-24T14:16:27Z</time>
</trkpt>
<trkpt lat="34.766528" lon="134.401056">
 <ele>252.4</ele>
 <time>2020-03-24T14:16:27Z</time>
</trkpt>
<trkpt lat="34.766459" lon="134.401034">
 <ele>252.2</ele>
 <time>2020-03-24T14:16:27Z</time>
</trkpt>
<trkpt lat="34.766347" lon="134.400969">
 <ele>251.1</ele>
 <time>2020-03-24T14:16:27Z</time>
</trkpt>
<trkpt lat="34.766278" lon="134.400959">
 <ele>249.6</ele>
 <time>2020-03-24T14:16:27Z</time>
</trkpt>
<trkpt lat="34.766175" lon="134.400916">
 <ele>247.9</ele>
 <time>2020-03-24T14:16:27Z</time>
</trkpt>
<trkpt lat="34.766098" lon="134.400894">
 <ele>247</ele>
 <time>2020-03-24T14:16:27Z</time>
</trkpt>
<trkpt lat="34.766021" lon="134.400884">
 <ele>245.3</ele>
 <time>2020-03-24T14:16:28Z</time>
</trkpt>
<trkpt lat="34.765926" lon="134.400905">
 <ele>242.1</ele>
 <time>2020-03-24T14:16:28Z</time>
</trkpt>
<trkpt lat="34.765806" lon="134.400894">
 <ele>239</ele>
 <time>2020-03-24T14:16:28Z</time>
</trkpt>
<trkpt lat="34.765686" lon="134.400851">
 <ele>234.7</ele>
 <time>2020-03-24T14:16:28Z</time>
</trkpt>
<trkpt lat="34.765592" lon="134.400809">
 <ele>231.8</ele>
 <time>2020-03-24T14:16:28Z</time>
</trkpt>
<trkpt lat="34.765489" lon="134.400733">
 <ele>227.8</ele>
 <time>2020-03-24T14:16:28Z</time>
</trkpt>
<trkpt lat="34.765377" lon="134.400648">
 <ele>222.1</ele>
 <time>2020-03-24T14:16:28Z</time>
</trkpt>
<trkpt lat="34.765300" lon="134.400615">
 <ele>219</ele>
 <time>2020-03-24T14:16:28Z</time>
</trkpt>
<trkpt lat="34.765205" lon="134.400508">
 <ele>214.4</ele>
 <time>2020-03-24T14:16:28Z</time>
</trkpt>
<trkpt lat="34.765128" lon="134.400422">
 <ele>209.7</ele>
 <time>2020-03-24T14:16:28Z</time>
</trkpt>
<trkpt lat="34.765051" lon="134.400326">
 <ele>205.7</ele>
 <time>2020-03-24T14:16:29Z</time>
</trkpt>
<trkpt lat="34.764991" lon="134.400229">
 <ele>202.6</ele>
 <time>2020-03-24T14:16:29Z</time>
</trkpt>
<trkpt lat="34.764905" lon="134.400154">
 <ele>197.9</ele>
 <time>2020-03-24T14:16:29Z</time>
</trkpt>
<trkpt lat="34.764811" lon="134.400036">
 <ele>192.9</ele>
 <time>2020-03-24T14:16:29Z</time>
</trkpt>
<trkpt lat="34.764750" lon="134.399886">
 <ele>190.1</ele>
 <time>2020-03-24T14:16:29Z</time>
</trkpt>
<trkpt lat="34.764725" lon="134.399832">
 <ele>189</ele>
 <time>2020-03-24T14:16:29Z</time>
</trkpt>
<trkpt lat="34.764656" lon="134.399768">
 <ele>187.3</ele>
 <time>2020-03-24T14:16:29Z</time>
</trkpt>
<trkpt lat="34.764613" lon="134.399671">
 <ele>185.6</ele>
 <time>2020-03-24T14:16:29Z</time>
</trkpt>
<trkpt lat="34.764587" lon="134.399585">
 <ele>183.2</ele>
 <time>2020-03-24T14:16:29Z</time>
</trkpt>
<trkpt lat="34.764536" lon="134.399510">
 <ele>180.8</ele>
 <time>2020-03-24T14:16:29Z</time>
</trkpt>
<trkpt lat="34.764476" lon="134.399392">
 <ele>177.3</ele>
 <time>2020-03-24T14:16:30Z</time>
</trkpt>
<trkpt lat="34.764407" lon="134.399285">
 <ele>174.5</ele>
 <time>2020-03-24T14:16:30Z</time>
</trkpt>
<trkpt lat="34.764313" lon="134.399124">
 <ele>168.1</ele>
 <time>2020-03-24T14:16:30Z</time>
</trkpt>
<trkpt lat="34.764261" lon="134.398995">
 <ele>164.1</ele>
 <time>2020-03-24T14:16:30Z</time>
</trkpt>
<trkpt lat="34.764236" lon="134.398899">
 <ele>161.6</ele>
 <time>2020-03-24T14:16:30Z</time>
</trkpt>
<trkpt lat="34.764167" lon="134.398824">
 <ele>159.5</ele>
 <time>2020-03-24T14:16:30Z</time>
</trkpt>
<trkpt lat="34.764090" lon="134.398759">
 <ele>158.4</ele>
 <time>2020-03-24T14:16:30Z</time>
</trkpt>
<trkpt lat="34.764004" lon="134.398673">
 <ele>157.2</ele>
 <time>2020-03-24T14:16:30Z</time>
</trkpt>
<trkpt lat="34.763901" lon="134.398598">
 <ele>156.7</ele>
 <time>2020-03-24T14:16:30Z</time>
</trkpt>
<trkpt lat="34.763781" lon="134.398577">
 <ele>156.2</ele>
 <time>2020-03-24T14:16:30Z</time>
</trkpt>
<trkpt lat="34.763497" lon="134.398513">
 <ele>155.7</ele>
 <time>2020-03-24T14:16:31Z</time>
</trkpt>
<trkpt lat="34.763403" lon="134.398470">
 <ele>156.8</ele>
 <time>2020-03-24T14:16:31Z</time>
</trkpt>
<trkpt lat="34.763300" lon="134.398437">
 <ele>157.2</ele>
 <time>2020-03-24T14:16:31Z</time>
</trkpt>
<trkpt lat="34.763206" lon="134.398416">
 <ele>156.1</ele>
 <time>2020-03-24T14:16:31Z</time>
</trkpt>
<trkpt lat="34.763137" lon="134.398341">
 <ele>155.1</ele>
 <time>2020-03-24T14:16:31Z</time>
</trkpt>
<trkpt lat="34.763085" lon="134.398341">
 <ele>153.4</ele>
 <time>2020-03-24T14:16:31Z</time>
</trkpt>
<trkpt lat="34.763034" lon="134.398287">
 <ele>152.2</ele>
 <time>2020-03-24T14:16:31Z</time>
</trkpt>
<trkpt lat="34.762982" lon="134.398266">
 <ele>151</ele>
 <time>2020-03-24T14:16:31Z</time>
</trkpt>
<trkpt lat="34.762888" lon="134.398223">
 <ele>147</ele>
 <time>2020-03-24T14:16:31Z</time>
</trkpt>
<trkpt lat="34.762794" lon="134.398223">
 <ele>143.2</ele>
 <time>2020-03-24T14:16:32Z</time>
</trkpt>
<trkpt lat="34.762733" lon="134.398180">
 <ele>140.3</ele>
 <time>2020-03-24T14:16:32Z</time>
</trkpt>
<trkpt lat="34.762656" lon="134.398116">
 <ele>136.9</ele>
 <time>2020-03-24T14:16:32Z</time>
</trkpt>
<trkpt lat="34.762570" lon="134.398126">
 <ele>134.2</ele>
 <time>2020-03-24T14:16:32Z</time>
</trkpt>
<trkpt lat="34.762493" lon="134.398158">
 <ele>132.3</ele>
 <time>2020-03-24T14:16:32Z</time>
</trkpt>
<trkpt lat="34.762407" lon="134.398158">
 <ele>128.3</ele>
 <time>2020-03-24T14:16:32Z</time>
</trkpt>
<trkpt lat="34.762296" lon="134.398191">
 <ele>124.5</ele>
 <time>2020-03-24T14:16:32Z</time>
</trkpt>
<trkpt lat="34.762176" lon="134.398158">
 <ele>121.1</ele>
 <time>2020-03-24T14:16:32Z</time>
</trkpt>
<trkpt lat="34.762115" lon="134.398083">
 <ele>118.8</ele>
 <time>2020-03-24T14:16:32Z</time>
</trkpt>
<trkpt lat="34.762030" lon="134.398105">
 <ele>117.5</ele>
 <time>2020-03-24T14:16:32Z</time>
</trkpt>
<trkpt lat="34.761944" lon="134.398116">
 <ele>115.8</ele>
 <time>2020-03-24T14:16:33Z</time>
</trkpt>
<trkpt lat="34.761875" lon="134.398116">
 <ele>114.5</ele>
 <time>2020-03-24T14:16:33Z</time>
</trkpt>
<trkpt lat="34.761815" lon="134.398094">
 <ele>112.9</ele>
 <time>2020-03-24T14:16:33Z</time>
</trkpt>
<trkpt lat="34.761746" lon="134.398073">
 <ele>111.2</ele>
 <time>2020-03-24T14:16:33Z</time>
</trkpt>
<trkpt lat="34.761643" lon="134.398030">
 <ele>109.8</ele>
 <time>2020-03-24T14:16:33Z</time>
</trkpt>
<trkpt lat="34.761566" lon="134.398008">
 <ele>108.1</ele>
 <time>2020-03-24T14:16:33Z</time>
</trkpt>
<trkpt lat="34.761506" lon="134.397976">
 <ele>107.7</ele>
 <time>2020-03-24T14:16:33Z</time>
</trkpt>
<trkpt lat="34.761429" lon="134.397912">
 <ele>106.4</ele>
 <time>2020-03-24T14:16:33Z</time>
</trkpt>
<trkpt lat="34.761317" lon="134.397890">
 <ele>104.2</ele>
 <time>2020-03-24T14:16:33Z</time>
</trkpt>
<trkpt lat="34.761257" lon="134.397912">
 <ele>103.7</ele>
 <time>2020-03-24T14:16:33Z</time>
</trkpt>
<trkpt lat="34.761197" lon="134.397869">
 <ele>102.8</ele>
 <time>2020-03-24T14:16:34Z</time>
</trkpt>
<trkpt lat="34.761111" lon="134.397880">
 <ele>101.3</ele>
 <time>2020-03-24T14:16:34Z</time>
</trkpt>
<trkpt lat="34.761051" lon="134.397869">
 <ele>100.9</ele>
 <time>2020-03-24T14:16:34Z</time>
</trkpt>
<trkpt lat="34.760957" lon="134.397815">
 <ele>100.5</ele>
 <time>2020-03-24T14:16:34Z</time>
</trkpt>
<trkpt lat="34.760819" lon="134.397794">
 <ele>100.7</ele>
 <time>2020-03-24T14:16:34Z</time>
</trkpt>
<trkpt lat="34.760734" lon="134.397740">
 <ele>101.2</ele>
 <time>2020-03-24T14:16:34Z</time>
</trkpt>
<trkpt lat="34.760665" lon="134.397762">
 <ele>101.9</ele>
 <time>2020-03-24T14:16:34Z</time>
</trkpt>
<trkpt lat="34.760596" lon="134.397762">
 <ele>102.4</ele>
 <time>2020-03-24T14:16:34Z</time>
</trkpt>
<trkpt lat="34.760545" lon="134.397772">
 <ele>102.1</ele>
 <time>2020-03-24T14:16:34Z</time>
</trkpt>
<trkpt lat="34.760399" lon="134.397751">
 <ele>101.3</ele>
 <time>2020-03-24T14:16:35Z</time>
</trkpt>
<trkpt lat="34.760347" lon="134.397697">
 <ele>99.8</ele>
 <time>2020-03-24T14:16:35Z</time>
</trkpt>
<trkpt lat="34.760262" lon="134.397719">
 <ele>97.7</ele>
 <time>2020-03-24T14:16:35Z</time>
</trkpt>
<trkpt lat="34.760184" lon="134.397708">
 <ele>96</ele>
 <time>2020-03-24T14:16:35Z</time>
</trkpt>
<trkpt lat="34.760081" lon="134.397654">
 <ele>92.7</ele>
 <time>2020-03-24T14:16:35Z</time>
</trkpt>
<trkpt lat="34.759978" lon="134.397644">
 <ele>90.1</ele>
 <time>2020-03-24T14:16:35Z</time>
</trkpt>
<trkpt lat="34.759901" lon="134.397568">
 <ele>89.4</ele>
 <time>2020-03-24T14:16:35Z</time>
</trkpt>
<trkpt lat="34.759841" lon="134.397525">
 <ele>88.4</ele>
 <time>2020-03-24T14:16:35Z</time>
</trkpt>
<trkpt lat="34.759686" lon="134.397461">
 <ele>88.2</ele>
 <time>2020-03-24T14:16:35Z</time>
</trkpt>
<trkpt lat="34.759549" lon="134.397429">
 <ele>88.2</ele>
 <time>2020-03-24T14:16:35Z</time>
</trkpt>
<trkpt lat="34.759480" lon="134.397429">
 <ele>87.4</ele>
 <time>2020-03-24T14:16:36Z</time>
</trkpt>
<trkpt lat="34.759438" lon="134.397397">
 <ele>87.9</ele>
 <time>2020-03-24T14:16:36Z</time>
</trkpt>
<trkpt lat="34.759377" lon="134.397365">
 <ele>88.1</ele>
 <time>2020-03-24T14:16:36Z</time>
</trkpt>
<trkpt lat="34.759274" lon="134.397343">
 <ele>87.5</ele>
 <time>2020-03-24T14:16:36Z</time>
</trkpt>
<trkpt lat="34.759214" lon="134.397343">
 <ele>87.4</ele>
 <time>2020-03-24T14:16:36Z</time>
</trkpt>
<trkpt lat="34.759163" lon="134.397332">
 <ele>87</ele>
 <time>2020-03-24T14:16:36Z</time>
</trkpt>
<trkpt lat="34.759094" lon="134.397322">
 <ele>87.1</ele>
 <time>2020-03-24T14:16:36Z</time>
</trkpt>
<trkpt lat="34.758974" lon="134.397343">
 <ele>87</ele>
 <time>2020-03-24T14:16:36Z</time>
</trkpt>
<trkpt lat="34.758888" lon="134.397343">
 <ele>85.1</ele>
 <time>2020-03-24T14:16:36Z</time>
</trkpt>
<trkpt lat="34.758811" lon="134.397365">
 <ele>83.3</ele>
 <time>2020-03-24T14:16:36Z</time>
</trkpt>
<trkpt lat="34.758863" lon="134.397525">
 <ele>76.5</ele>
 <time>2020-03-24T14:16:37Z</time>
</trkpt>
<trkpt lat="34.758802" lon="134.397536">
 <ele>75</ele>
 <time>2020-03-24T14:16:37Z</time>
</trkpt>
<trkpt lat="34.758682" lon="134.397579">
 <ele>69.9</ele>
 <time>2020-03-24T14:16:37Z</time>
</trkpt>
<trkpt lat="34.758571" lon="134.397525">
 <ele>63.2</ele>
 <time>2020-03-24T14:16:37Z</time>
</trkpt>
<trkpt lat="34.758502" lon="134.397461">
 <ele>62.1</ele>
 <time>2020-03-24T14:16:37Z</time>
</trkpt>
<trkpt lat="34.758365" lon="134.397397">
 <ele>56.7</ele>
 <time>2020-03-24T14:16:37Z</time>
</trkpt>
<trkpt lat="34.758227" lon="134.397354">
 <ele>48.9</ele>
 <time>2020-03-24T14:16:37Z</time>
</trkpt>
<trkpt lat="34.758124" lon="134.397300">
 <ele>45</ele>
 <time>2020-03-24T14:16:37Z</time>
</trkpt>
<trkpt lat="34.758047" lon="134.397236">
 <ele>42.9</ele>
 <time>2020-03-24T14:16:37Z</time>
</trkpt>
<trkpt lat="34.757970" lon="134.397193">
 <ele>38.3</ele>
 <time>2020-03-24T14:16:37Z</time>
</trkpt>
<trkpt lat="34.757893" lon="134.397204">
 <ele>35.4</ele>
 <time>2020-03-24T14:16:38Z</time>
</trkpt>
<trkpt lat="34.757824" lon="134.397204">
 <ele>32.7</ele>
 <time>2020-03-24T14:16:38Z</time>
</trkpt>
<trkpt lat="34.757764" lon="134.397171">
 <ele>31.1</ele>
 <time>2020-03-24T14:16:38Z</time>
</trkpt>
<trkpt lat="34.757695" lon="134.397129">
 <ele>28.2</ele>
 <time>2020-03-24T14:16:38Z</time>
</trkpt>
<trkpt lat="34.757618" lon="134.397043">
 <ele>23.4</ele>
 <time>2020-03-24T14:16:38Z</time>
</trkpt>
<trkpt lat="34.757515" lon="134.396968">
 <ele>20.8</ele>
 <time>2020-03-24T14:16:38Z</time>
</trkpt>
<trkpt lat="34.757421" lon="134.396860">
 <ele>20.3</ele>
 <time>2020-03-24T14:16:38Z</time>
</trkpt>
<trkpt lat="34.757326" lon="134.396860">
 <ele>14.3</ele>
 <time>2020-03-24T14:16:38Z</time>
</trkpt>
<trkpt lat="34.757137" lon="134.397032">
 <ele>3.7</ele>
 <time>2020-03-24T14:16:38Z</time>
</trkpt>
<trkpt lat="34.756931" lon="134.396807">
 <ele>3.4</ele>
 <time>2020-03-24T14:16:38Z</time>
</trkpt>
<trkpt lat="34.756940" lon="134.396667">
 <ele>3.2</ele>
 <time>2020-03-24T14:16:39Z</time>
</trkpt>
<trkpt lat="34.756991" lon="134.396463">
 <ele>3.1</ele>
 <time>2020-03-24T14:16:39Z</time>
</trkpt>
<trkpt lat="34.757154" lon="134.396088">
 <ele>3.1</ele>
 <time>2020-03-24T14:16:39Z</time>
</trkpt>
<trkpt lat="34.757541" lon="134.395616">
 <ele>2.8</ele>
 <time>2020-03-24T14:16:39Z</time>
</trkpt>
<trkpt lat="34.758176" lon="134.394768">
 <ele>2.6</ele>
 <time>2020-03-24T14:16:39Z</time>
</trkpt>
<trkpt lat="34.758313" lon="134.394328">
 <ele>2.4</ele>
 <time>2020-03-24T14:16:39Z</time>
</trkpt>
<trkpt lat="34.758373" lon="134.394028">
 <ele>2.4</ele>
 <time>2020-03-24T14:16:39Z</time>
</trkpt>
<trkpt lat="34.758373" lon="134.393481">
 <ele>2.2</ele>
 <time>2020-03-24T14:16:39Z</time>
</trkpt>
<trkpt lat="34.758330" lon="134.393470">
 <ele>2.1</ele>
 <time>2020-03-24T14:16:39Z</time>
</trkpt>
<trkpt lat="34.757343" lon="134.393470">
 <ele>2.4</ele>
 <time>2020-03-24T14:16:39Z</time>
</trkpt>
<trkpt lat="34.757240" lon="134.393491">
 <ele>2.4</ele>
 <time>2020-03-24T14:16:40Z</time>
</trkpt>
<trkpt lat="34.757197" lon="134.393406">
 <ele>2.4</ele>
 <time>2020-03-24T14:16:40Z</time>
</trkpt>
<trkpt lat="34.756974" lon="134.393406">
 <ele>2.3</ele>
 <time>2020-03-24T14:16:40Z</time>
</trkpt>
</trkseg>
</trk>
</gpx>

